Change the Weather History Date:

Monday, September 2, 2013

  Actual Average Record
Temperature  
Mean Temperature 66 °F 67 °F  
Max Temperature 73 °F 78 °F 99 °F (1894)
Min Temperature 58 °F 56 °F 36 °F (1867)
Degree Days  
Heating Degree Days 0 2  
Month to date heating degree days 0 4  
Since 1 July heating degree days 35 39  
Cooling Degree Days 1 4  
Month to date cooling degree days 10 8  
Year to date cooling degree days 598 565  
Growing Degree Days 16 (Base 50)    
Moisture  
Dew Point 57 °F    
Average Humidity 75    
Maximum Humidity 93    
Minimum Humidity 57    
Precipitation  
Precipitation 0.00 in 0.12 in 1.30 in (1870)
Month to date precipitation T 0.23  
Year to date precipitation 32.92 21.32  
Snow  
Snow 0.00 in 0.00 in 0.00 in ()
Month to date snowfall 0.0 0.0  
Since 1 July snowfall 0.0 0.0  
Since 1 September snowfall 0.0 0.0  
Snow Depth 0.00 in    
Sea Level Pressure  
Sea Level Pressure 29.87 in    
Wind  
Wind Speed 10 mph (NW)    
Max Wind Speed 18 mph    
Max Gust Speed 24 mph    
Visibility 9 miles    
Events      
T = Trace of Precipitation, MM = Missing Value Source: NWS Daily Summary

Daily Weather History Graph

Daily Weather History Graph

Search for Another Location

Airport or City:

Trip Planner

Search our weather history database for the weather conditions in past years. The results will help you decide how hot, cold, wet, or windy it might be!

Date:

Astronomy

Sep. 02, 2013 Rise Set
Actual Time 7:04 AM EDT 8:10 PM EDT
Civil Twilight 6:35 AM EDT 8:39 PM EDT
Nautical Twilight 6:00 AM EDT 9:14 PM EDT
Astronomical Twilight 5:24 AM EDT 9:50 PM EDT
Moon 4:18 AM EDT (9/2) 6:25 PM EDT (9/2)
Length of Visible Light 14h 04m
Length of Day
13h 06m
Waning Crescent, 8% of the Moon is Illuminated
Sep 2
Waning Crescent
Sep 5
New
Sep 12
First Quarter
Sep 19
Full
Sep 26
Last Quarter

Hourly Weather History & Observations

Time (EDT) Temp. Dew Point Humidity Pressure Visibility Wind Dir Wind Speed Gust Speed Precip Events Conditions
12:53 AM 68.0 °F 64.9 °F 90% 29.77 in 9.0 mi West 5.8 mph - N/A   Clear
1:53 AM 68.0 °F 66.0 °F 93% 29.77 in 9.0 mi WSW 3.5 mph - N/A   Overcast
2:53 AM 69.1 °F 66.0 °F 90% 29.76 in 7.0 mi WNW 4.6 mph - N/A   Mostly Cloudy
3:53 AM 69.1 °F 66.9 °F 93% 29.75 in 6.0 mi NW 5.8 mph - N/A   Overcast
4:16 AM 69.8 °F 66.2 °F 88% 29.77 in 5.0 mi NW 8.1 mph - N/A   Overcast
4:53 AM 66.9 °F 64.9 °F 93% 29.76 in 7.0 mi NW 5.8 mph - N/A   Partly Cloudy
5:11 AM 66.2 °F 64.4 °F 94% 29.78 in 6.0 mi NW 3.5 mph - N/A   Partly Cloudy
5:53 AM 66.0 °F 64.0 °F 93% 29.78 in 7.0 mi NNW 8.1 mph - N/A   Scattered Clouds
6:07 AM 66.2 °F 64.4 °F 94% 29.80 in 7.0 mi NNW 9.2 mph - N/A   Mostly Cloudy
6:41 AM 66.2 °F 62.6 °F 88% 29.82 in 10.0 mi North 5.8 mph - N/A   Overcast
6:53 AM 66.0 °F 63.0 °F 90% 29.81 in 10.0 mi North 6.9 mph - N/A   Overcast
7:53 AM 63.0 °F 60.1 °F 90% 29.84 in 10.0 mi North 6.9 mph - N/A   Mostly Cloudy
8:23 AM 62.6 °F 59.0 °F 88% 29.86 in 10.0 mi North 8.1 mph - N/A   Mostly Cloudy
8:53 AM 62.1 °F 57.0 °F 84% 29.86 in 10.0 mi NW 11.5 mph - N/A   Mostly Cloudy
9:42 AM 64.4 °F 57.2 °F 77% 29.88 in 10.0 mi NNW 9.2 mph - N/A   Mostly Cloudy
9:53 AM 64.0 °F 57.0 °F 78% 29.87 in 10.0 mi NNW 6.9 mph - N/A   Scattered Clouds
10:53 AM 66.9 °F 55.9 °F 68% 29.88 in 10.0 mi WNW 6.9 mph - N/A   Partly Cloudy
11:53 AM 70.0 °F 57.9 °F 65% 29.88 in 10.0 mi NW 9.2 mph - N/A   Scattered Clouds
12:53 PM 71.1 °F 57.0 °F 61% 29.88 in 10.0 mi NW 12.7 mph - N/A   Mostly Cloudy
1:53 PM 71.1 °F 55.0 °F 57% 29.88 in 10.0 mi NW 15.0 mph 20.7 mph N/A   Overcast
2:53 PM 70.0 °F 55.0 °F 59% 29.88 in 10.0 mi WNW 16.1 mph 23.0 mph N/A   Overcast
3:53 PM 69.1 °F 55.9 °F 63% 29.88 in 10.0 mi WNW 15.0 mph - N/A   Overcast
4:53 PM 69.1 °F 55.0 °F 61% 29.88 in 10.0 mi WNW 12.7 mph - N/A   Overcast
5:53 PM 68.0 °F 53.1 °F 59% 29.89 in 10.0 mi WNW 15.0 mph 20.7 mph N/A   Mostly Cloudy
6:53 PM 64.0 °F 51.1 °F 63% 29.91 in 10.0 mi NW 12.7 mph - N/A   Overcast
7:53 PM 62.1 °F 51.1 °F 67% 29.92 in 10.0 mi NNW 12.7 mph 18.4 mph N/A   Overcast
8:53 PM 60.1 °F 48.9 °F 67% 29.93 in 10.0 mi NW 8.1 mph - N/A   Overcast
9:15 PM 60.8 °F 48.2 °F 63% 29.94 in 10.0 mi NW 10.4 mph - N/A   Overcast
9:53 PM 60.1 °F 50.0 °F 69% 29.95 in 10.0 mi NW 11.5 mph - N/A   Overcast
10:25 PM 60.8 °F 50.0 °F 68% 29.95 in 10.0 mi Calm Calm - N/A   Overcast
10:37 PM 59.0 °F 50.0 °F 72% 29.96 in 10.0 mi NNW 5.8 mph - N/A   Overcast
10:53 PM 59.0 °F 50.0 °F 72% 29.96 in 10.0 mi NW 10.4 mph - N/A   Overcast
11:11 PM 59.0 °F 50.0 °F 72% 29.97 in 10.0 mi NNW 6.9 mph - N/A   Overcast
11:53 PM 59.0 °F 50.0 °F 72% 29.96 in 10.0 mi NW 5.8 mph 18.4 mph N/A   Overcast